www.pogodaiklimat.ru

Погода и климат >> Архив погоды >> Украина >> Ротмистровка


ПОГОДА в Ротмистровке

  • Прогноз погоды в Ротмистровке
  • Монитор погоды в Ротмистровке

АРХИВ ПОГОДЫ в Ротмистровке

Время (UTC), дата Ветер
(напр.,м/с)
 
Видим.   Явления Облачность Т
(С)
Тd
(С)
f
(%)
Тe
(С)
Тes
(С)
Комфортность P
(гПа)
Po
(гПа)
Тmin
(С)
Tmax
(С)
R
(мм)
R24
(мм)
S
(см)
12 11.07 З 2 10 км 8/8 600 м
[Cb calv]
+19.3 +9.6 53 +21 +24 комфорт 1006.4 986.8
18 11.07 З 1 10 км 8/4 600 м
[Cb calv Ac trans]
+17.6 +10.3 62 +19 +19 1007.2 987.5 +21.0
21 11.07 З 2 10 км 6/0
[Ac lent]
+14.3 +10.9 80 +14 +14 1007.9 988.0
00 12.07 ЮВ 1 10 км 1/0
[Ac trans]
+10.1 +8.3 89 +10 +10 1008.2 988.0
03 12.07 СВ 1 10 км 3/0
[Ci]
+8.9 +7.6 92 +8 +9 1008.5 988.2
06 12.07 10 км н/о +17.1 +11.8 71 +18 +25 1008.7 988.9 +8.2
09 12.07 ЮВ 1 10 км 4/4 600 м
[Cb calv]
+19.8 +10.6 55 +22 +34 комфорт 1008.2 988.6
12 12.07 СЗ 3 10 км в посл. час ливневой дождь 8/8 600 м
[Cb calv]
+21.3 +12.5 57 +24 +26 комфорт 1007.7 988.2
15 12.07 З 3 10 км {гроза, ливн. осадки} 9/9 600 м
[Cb calv]
+18.4 +10.7 61 +19 +19 1008.0 988.3
18 12.07 С 1 10 км {гроза} 6/6 600 м
[Cb calv]
+16.4 +12.0 75 +17 +17 1008.8 989.0 +21.6 1
00 13.07 ЮВ 1 10 км 1/0
[Ac trans]
+9.0 +4.2 72 +9 +9 1009.8 989.5
03 13.07 ЮЗ 1 10 км 1/0
[Ac trans]
+8.6 +4.3 74 +8 +8 1009.7 989.3
06 13.07 СЗ 2 10 км 3/0
[Ci sp]
+16.6 +11.5 72 +17 +24 1009.5 989.7 +8.5
09 13.07 З 3 10 км 8/8 1000 м
[Cu med, cong]
+21.1 +10.8 52 +23 +26 комфорт 1009.3 989.8
12 13.07 З 3 10 км 8/8 1000 м
[Cu med, cong]
+23.9 +8.4 37 +24 +27 комфорт 1008.4 989.1
15 13.07 З 2 10 км 6/4 1000 м
[Cu med, cong Ci sp]
+24.1 +8.7 37 +25 +27 комфорт 1008.2 988.9
18 13.07 СВ 1 10 км 8/3 600 м
[Sc diur, vesp Ac trans Ci sp]
+20.0 +11.8 59 +23 +23 комфорт 1009.8 990.2 +25.0
21 13.07 С 1 10 км 5/0
[Ac trans Ci fib]
+15.2 +10.9 75 +16 +16 1010.1 990.2
00 14.07 штиль 0 10 км 5/0
[Ac trans Ci sp]
+11.5 +9.5 88 +11 +11 1009.9 989.7
03 14.07 штиль 0 10 км 6/0
[Ac lent Cc]
+9.7 +8.5 92 +9 +9 1010.1 989.8
06 14.07 В 1 10 км 4/0
[Ac lent Ci fib]
+19.9 +11.8 60 +23 +30 комфорт 1009.6 990.0 +9.2
09 14.07 ЮВ 1 10 км 8/6 1000 м
[Cu med, cong Ci sp]
+23.6 +10.5 44 +25 +32 комфорт 1008.9 989.6
12 14.07 СВ 3 10 км 8/8 600 м
[Cb calv Ac trans]
+23.7 +11.1 45 +25 +27 комфорт 1008.2 988.9
15 14.07 В 1 10 км 9/6 600 м
[Cb calv Ac trans Ci sp]
+23.2 +11.5 48 +26 +27 жарко 1008.3 989.0
18 14.07 Ю 2 10 км 9/8 600 м
[Cb calv Ac trans]
+20.7 +13.6 64 +24 +24 комфорт 1009.1 989.6 +25.4
21 14.07 СЗ 1 10 км 9/9 600 м
[Cb calv]
+16.9 +13.2 79 +18 +18 1009.6 989.8
00 15.07 СЗ 2 10 км 8/5 1000 м
[Sc Ac trans]
+14.1 +13.2 94 +14 +14 1008.2 988.2
03 15.07 СЗ 2 10 км 8/3 1000 м
[Sc Ac trans Ci sp]
+13.1 +12.4 96 +12 +12 1008.7 988.7
06 15.07 С 2 10 км 4/1 600 м
[Cb calv Cc]
+19.5 +13.4 68 +22 +28 комфорт 1008.7 989.1 +12.6
09 15.07 С 2 10 км 6/3 1000 м
[Cu med, cong Ac trans Ci sp]
+23.8 +12.3 48 +26 +35 жарко 1007.9 988.6
12 15.07 Ю 1 10 км 8/3 600 м
[Cb calv Ci sp]
+25.6 +12.1 43 +27 +37 жарко 1007.2 988.0
15 15.07 СЗ 6 10 км гроза без осадков 10/6 600 м
[Cb calv Ci sp]
+20.7 +13.0 61 +23 +23 комфорт 1008.3 988.8
18 15.07 СЗ 3 10 км {гроза, ливн. осадки} 9/6 600 м
[Cb calv Ci sp]
+17.8 +14.2 79 +18 +18 1009.5 989.8 +26.6 0.1
00 16.07 СЗ 3 10 км 9/3 600 м
[Cb calv Ci sp]
+15.3 +14.1 93 +15 +15 1008.8 988.9
06 16.07 С 4 10 км 8/8 600 м
[Cb calv]
+17.7 +14.4 81 +17 +19 1009.2 989.5 +14.2
12 16.07 СЗ 2 10 км 8/8 600 м
[Cb calv]
+23.3 +11.9 49 +26 +29 жарко 1007.9 988.6
18 16.07 СЗ 1 10 км 3/3 600 м
[Cb calv]
+21.9 +11.4 51 +24 +24 комфорт 1007.8 988.4 +25.1
00 17.07 штиль 0 10 км 1/1 1000 м
[Sc]
+11.1 +9.5 90 +10 +10 1008.7 988.5
06 17.07 З 4 10 км 4/3 1000 м
[Cu hum Ci sp]
+19.8 +10.6 55 +21 +25 комфорт 1007.9 988.3 +9.9
12 17.07 ЮЗ 3 10 км 6/3 1000 м
[Cu hum Ac trans]
+22.5 +10.8 48 +25 +31 комфорт 1007.5 988.1
18 17.07 З 3 10 км 8/4 600 м
[Cb calv Ac trans Ci sp]
+19.2 +11.2 60 +20 +20 1008.1 988.5 +24.0
06 18.07 З 2 10 км 4/3 1000 м
[Cu hum Ci sp]
+16.4 +11.2 71 +17 +22 1010.3 990.5 +9.9

 

Местоположение метеостанции Ротмистровка (Черкасская область, Украина): широта 49.13 долгота 31.70 высота над уровнем моря 168 м.

В архиве по умолчанию представлена погода в Ротмистровке за последнюю неделю. Архивные данные за месяц целиком и за предыдущие месяцы, начиная с января 2011 года, Вы можете получить, выбрав интересующий диапазон дат из раскрывающегося списка и нажав кнопку "Ввод!".


*Определитесь, кто Вы:
робот инопланетянин человек

Внимание! Время в таблицах - всемирное. Для получения местного времени необходимо прибавить поправку, которая равна 2 ч.

Смотрите также архив погоды в соседних городах и на ближайших метеорологических станциях:

Погода в Новомиргороде (Кировоградская область, Украина) (39 км)
Погода в Черкассах (Черкасская область, Украина) (41 км)
Погода в Звенигородке (Черкасская область, Украина) (59 км)
Погода в Золотоноше (Черкасская область, Украина) (66 км)
Погода в Каневе (Черкасская область, Украина) (68 км)
Погода в Чигирине (Черкасская область, Украина) (71 км)
Погода в Кропивницком (Кировоградская область, Украина) (77 км)
Погода в Мироновке (Киевская область, Украина) (79 км)
Погода в Знаменке (Кировоградская область, Украина) (84 км)
Погода в Помошной (Кировоградская область, Украина) (102 км)

Пояснения к столбцам:

Ветер - указаны скорость ветра в м/с - средняя за 10 мин, порывы в срок и между сроками (в фигурных скобках) и направление, откуда дует ветер: С - северный, СВ - северо-восточный, В - восточный, ЮВ - юго-восточный, Ю - южный, ЮЗ - юго-западный, З - западный, СЗ - северо-западный.
Видимость - горизонтальная дальность видимости в метрах или километрах. При видимости от 1 до 10 км при отсутствии осадков обычно наблюдается дымка, при ухудшении видимости до 1 км и менее - туман. В сухую погоду видимость может ухудшаться дымом, пылью или мглою.
Явления - указаны атмосферные явления, наблюдавшиеся в срок или в последний час перед сроком; фигурными скобками обозначены явления, наблюдавшиеся между сроками (за 1-3 часа до срока); квадратными скобками обозначены град или гололедные отложения с указанием их диаметра в мм.
Облачность - указаны через наклонную черту общая и нижняя облачность в баллах и высота нижней границы облаков в метрах; квадратными скобками обозначены формы облаков: Ci - перистые, Cs - перисто-слоистые, Cc - перисто-кучевые, Ac - высококучевые, As - высокослоистые, Sc - слоисто-кучевые, Ns - слоисто-дождевые, Cu - кучевые, Cb - кучево-дождевые. Подробнее классификацию облаков см. в Атласе облаков (PDF).
T - Температура воздуха - температура, измеренная на высоте 2 м над землей.
Td - Температура точки росы - температура, при понижении до которой содержащийся в воздухе водяной пар достигнет насыщения.
f - Относительная влажность воздуха - влажноcть воздуха, измеренная на высоте 2 м над землей.
Te - Эффективная температура - температура, которую ощущает одетый по сезону человек в тени. Характеристика душности погоды. При расчете учитывается влияние влажности воздуха и скорости ветра на теплоощущения человека.
Tes - Эффективная температура на солнце - температура, которую ощущает человек, с поправкой на солнечный нагрев. Характеристика знойности погоды. Зависит от высоты солнца над горизонтом, облачности и скорости ветра. Ночью, в пасмурную погоду, а также при ветре 12 м/с и более поправка равна нулю.
P - Атмосферное давление - приведенное к уровню моря атмосферное давление.
Po - Атмосферное давление - измеренное на уровне метеостанции атмосферное давление.
Tmin - Минимальная температура - минимум температуры воздуха на высоте 2 м над землей.
Tmax - Максимальная температура - максимум температуры воздуха на высоте 2 м над землей.
R - Количество осадков - Количество выпавших осадков за период времени, мм. При наведении курсора мыши на число - период времени, за который выпало указанное количество осадков.
R24 - Количество осадков - Количество выпавших осадков за 24 часа, мм.
S - Снежный покров - Высота снежного покрова, см. При наведении курсора мыши на число - состояние снежного покрова и степень покрытия местности в баллах.